Location: Regensburg
(48.4565°N, 10.3217°E)
Time: 13:07:49
(UTC+01:00)

ISS - Pass Details

Date: 14 November 2017
Orbit: 402 x 407 km, 51.6° (Epoch: 21 November)

Event Time Altitude Azimuth Distance (km) Brightness Sun altitude
Exits shadow 04:12:35 10° 86° (E) 1,449 -0.2 -31.8°
Drops below altitude 10° 04:12:37 10° 86° (E) 1,456 -0.2 -31.8°
Sets 04:14:44 0° 92° (E) 2,314 1.1 -31.4°
